LAN408 SCEL-SUMU

Flight info

Callsign LAN408
Flight time 1h 44m
Altitude 37000
Route ALBA7C ALBAL UM424 TOKAM DCT
Aircraft A320/M-V/N

Departure

Time 2026-04-23 17:11
Airport Comodoro Arturo Merino Benítez International Airport (SCEL)

Arrival

Time 2026-04-23 18:56
Airport Carrasco General Cesáreo L. Berisso International Airport (SUMU)
Time Latitude Longitude Altitude Speed Heading
2026-04-23 16:50 -33.39570 -70.79154 1564 ft 0 kts 176°
2026-04-23 17:00 -33.39556 -70.79155 1600 ft 3 kts 181°
2026-04-23 17:01 -33.39535 -70.79153 1575 ft 3 kts 192°
2026-04-23 17:01 -33.39516 -70.79146 1577 ft 3 kts 207°
2026-04-23 17:01 -33.39500 -70.79133 1577 ft 3 kts 240°
2026-04-23 17:01 -33.39496 -70.79121 1577 ft 0 kts 267°
2026-04-23 17:04 -33.39498 -70.79174 1568 ft 15 kts 267°
2026-04-23 17:04 -33.39504 -70.79305 1564 ft 16 kts 267°
2026-04-23 17:04 -33.39510 -70.79447 1564 ft 18 kts 267°
2026-04-23 17:04 -33.39517 -70.79597 1564 ft 19 kts 267°
2026-04-23 17:05 -33.39523 -70.79756 1564 ft 20 kts 267°
2026-04-23 17:05 -33.39530 -70.79921 1565 ft 20 kts 267°
2026-04-23 17:05 -33.39481 -70.80045 1566 ft 17 kts
2026-04-23 17:05 -33.39360 -70.80051 1566 ft 20 kts 357°
2026-04-23 17:06 -33.39193 -70.80062 1566 ft 26 kts 356°
2026-04-23 17:06 -33.39011 -70.80078 1567 ft 26 kts
2026-04-23 17:06 -33.38829 -70.80082 1567 ft 27 kts 355°
2026-04-23 17:06 -33.38642 -70.80100 1567 ft 27 kts 355°
2026-04-23 17:07 -33.38452 -70.80105 1567 ft 28 kts 360°
2026-04-23 17:07 -33.38259 -70.80113 1566 ft 29 kts 358°
2026-04-23 17:07 -33.38057 -70.80124 1566 ft 29 kts 356°
2026-04-23 17:07 -33.37853 -70.80135 1566 ft 29 kts 356°
2026-04-23 17:08 -33.37646 -70.80148 1566 ft 30 kts 355°
2026-04-23 17:08 -33.37434 -70.80162 1567 ft 30 kts 358°
2026-04-23 17:08 -33.37237 -70.80169 1567 ft 24 kts 358°
2026-04-23 17:08 -33.37115 -70.80220 1568 ft 14 kts 291°
2026-04-23 17:09 -33.37110 -70.80235 1568 ft 0 kts 289°
2026-04-23 17:09 -33.37110 -70.80236 1568 ft 1 kts 289°
2026-04-23 17:09 -33.37103 -70.80272 1570 ft 8 kts 272°
2026-04-23 17:09 -33.37120 -70.80337 1574 ft 7 kts 234°
2026-04-23 17:10 -33.37187 -70.80374 1573 ft 9 kts 181°
2026-04-23 17:10 -33.37197 -70.80374 1573 ft 2 kts 180°
2026-04-23 17:10 -33.37347 -70.80367 1573 ft 52 kts 177°
2026-04-23 17:10 -33.37922 -70.80338 1573 ft 111 kts 177°
2026-04-23 17:11 -33.38852 -70.80283 1574 ft 155 kts 177°
2026-04-23 17:11 -33.40019 -70.80222 1783 ft 175 kts 179°
2026-04-23 17:11 -33.41251 -70.80164 2373 ft 177 kts 179°
2026-04-23 17:11 -33.42485 -70.80108 3003 ft 177 kts 178°
2026-04-23 17:12 -33.43720 -70.80046 3620 ft 178 kts 178°
2026-04-23 17:12 -33.45010 -70.79988 4076 ft 194 kts 178°
2026-04-23 17:12 -33.46421 -70.79953 4549 ft 208 kts 179°
2026-04-23 17:12 -33.47912 -70.79936 5083 ft 218 kts 180°
2026-04-23 17:13 -33.49462 -70.79932 5674 ft 227 kts 180°
2026-04-23 17:13 -33.51059 -70.79927 6292 ft 235 kts 181°
2026-04-23 17:13 -33.52714 -70.79894 6886 ft 245 kts 178°
2026-04-23 17:13 -33.54463 -70.79698 7497 ft 255 kts 173°
2026-04-23 17:14 -33.56240 -70.79398 8102 ft 266 kts 172°
2026-04-23 17:14 -33.58104 -70.79074 8746 ft 276 kts 173°
2026-04-23 17:14 -33.60061 -70.78761 9475 ft 282 kts 173°
2026-04-23 17:14 -33.62058 -70.78471 9940 ft 298 kts 174°
2026-04-23 17:15 -33.64163 -70.78189 10345 ft 311 kts 175°
2026-04-23 17:15 -33.66314 -70.77918 10980 ft 317 kts 175°
2026-04-23 17:15 -33.68536 -70.77646 11656 ft 323 kts 175°
2026-04-23 17:15 -33.70787 -70.77375 12351 ft 328 kts 175°
2026-04-23 17:16 -33.73089 -70.77101 13079 ft 333 kts 175°
2026-04-23 17:16 -33.75425 -70.76821 13816 ft 337 kts 175°
2026-04-23 17:16 -33.77718 -70.76463 14475 ft 339 kts 168°
2026-04-23 17:16 -33.79970 -70.75557 15135 ft 343 kts 155°
2026-04-23 17:17 -33.82027 -70.74059 15706 ft 349 kts 142°
2026-04-23 17:17 -33.83789 -70.72019 16275 ft 355 kts 129°
2026-04-23 17:17 -33.84738 -70.70410 16642 ft 358 kts 120°
2026-04-23 17:17 -33.86196 -70.66771 17409 ft 363 kts 114°
2026-04-23 17:18 -33.88323 -70.61178 18567 ft 371 kts 115°
2026-04-23 17:18 -33.89391 -70.58376 19078 ft 375 kts 115°
2026-04-23 17:18 -33.90497 -70.55479 19615 ft 378 kts 115°
2026-04-23 17:19 -33.91586 -70.52622 20037 ft 384 kts 115°
2026-04-23 17:19 -33.92728 -70.49631 20147 ft 400 kts 115°
2026-04-23 17:19 -33.93900 -70.46563 20171 ft 407 kts 115°
2026-04-23 17:19 -33.95084 -70.43452 20215 ft 407 kts 115°
2026-04-23 17:20 -33.96256 -70.40355 20812 ft 405 kts 115°
2026-04-23 17:20 -33.98592 -70.34193 22092 ft 403 kts 115°
2026-04-23 17:21 -34.00909 -70.28071 23431 ft 399 kts 116°
2026-04-23 17:21 -34.02058 -70.25041 24064 ft 396 kts 116°
2026-04-23 17:21 -34.04338 -70.19023 25232 ft 390 kts 116°
2026-04-23 17:22 -34.05456 -70.16055 25844 ft 387 kts 115°
2026-04-23 17:22 -34.07667 -70.10167 26840 ft 383 kts 115°
2026-04-23 17:23 -34.09914 -70.04190 27215 ft 402 kts 115°
2026-04-23 17:23 -34.11075 -70.01100 27217 ft 416 kts 115°
2026-04-23 17:23 -34.13513 -69.94594 27685 ft 428 kts 115°
2026-04-23 17:24 -34.14738 -69.91318 28121 ft 428 kts 115°
2026-04-23 17:24 -34.15962 -69.88039 28582 ft 429 kts 115°
2026-04-23 17:24 -34.17919 -69.82529 29341 ft 429 kts 109°
2026-04-23 17:25 -34.19189 -69.75512 30275 ft 426 kts 98°
2026-04-23 17:25 -34.19671 -69.71991 30679 ft 425 kts 99°
2026-04-23 17:26 -34.20646 -69.64973 31503 ft 422 kts 98°
2026-04-23 17:26 -34.21603 -69.58026 32132 ft 425 kts 98°
2026-04-23 17:27 -34.22588 -69.50826 32166 ft 443 kts 98°
2026-04-23 17:27 -34.23098 -69.47099 32157 ft 453 kts 98°
2026-04-23 17:27 -34.24136 -69.39444 32147 ft 470 kts 98°
2026-04-23 17:28 -34.25202 -69.31547 32254 ft 479 kts 98°
2026-04-23 17:28 -34.25735 -69.27582 32684 ft 476 kts 98°
2026-04-23 17:28 -34.26266 -69.23640 33121 ft 472 kts 98°
2026-04-23 17:29 -34.26792 -69.19738 33571 ft 469 kts 98°
2026-04-23 17:29 -34.27313 -69.15856 34031 ft 466 kts 97°
2026-04-23 17:29 -34.28333 -69.08166 34820 ft 458 kts 97°
2026-04-23 17:30 -34.28835 -69.04362 35046 ft 460 kts 97°
2026-04-23 17:30 -34.29854 -68.96629 35097 ft 472 kts 97°
2026-04-23 17:30 -34.30370 -68.92679 35096 ft 478 kts 97°
2026-04-23 17:31 -34.31415 -68.84616 35091 ft 491 kts 97°
2026-04-23 17:31 -34.32472 -68.76405 35087 ft 496 kts 97°
2026-04-23 17:32 -34.33542 -68.68123 35090 ft 498 kts 97°
2026-04-23 17:32 -34.34617 -68.59828 35096 ft 499 kts 96°
2026-04-23 17:33 -34.35146 -68.55675 35206 ft 501 kts 96°
2026-04-23 17:33 -34.35672 -68.51519 35592 ft 497 kts 96°
2026-04-23 17:33 -34.36193 -68.47390 35980 ft 492 kts 96°
2026-04-23 17:33 -34.36711 -68.43305 36352 ft 489 kts 96°
2026-04-23 17:34 -34.37228 -68.39242 36705 ft 485 kts 96°
2026-04-23 17:34 -34.37739 -68.35212 37020 ft 483 kts 96°
2026-04-23 17:35 -34.39257 -68.23013 37107 ft 496 kts 96°
2026-04-23 17:35 -34.40800 -68.10457 37094 ft 509 kts 96°
2026-04-23 17:36 -34.41858 -68.01888 37077 ft 518 kts 96°
2026-04-23 17:36 -34.42931 -67.93227 37076 ft 522 kts 96°
2026-04-23 17:37 -34.43994 -67.84501 37084 ft 523 kts 96°
2026-04-23 17:38 -34.45549 -67.71413 37076 ft 523 kts 95°
2026-04-23 17:38 -34.46550 -67.62674 37085 ft 524 kts 95°
2026-04-23 17:39 -34.47553 -67.53924 37089 ft 524 kts 95°
2026-04-23 17:39 -34.48554 -67.45216 37093 ft 524 kts 95°
2026-04-23 17:40 -34.49556 -67.36445 37098 ft 525 kts 95°
2026-04-23 17:40 -34.50551 -67.27683 37100 ft 525 kts 95°
2026-04-23 17:41 -34.51542 -67.18901 37105 ft 525 kts 95°
2026-04-23 17:41 -34.53008 -67.05747 37104 ft 525 kts 95°
2026-04-23 17:42 -34.54451 -66.92562 37102 ft 525 kts 95°
2026-04-23 17:43 -34.55414 -66.83774 37109 ft 525 kts 95°
2026-04-23 17:43 -34.56370 -66.74970 37106 ft 525 kts 95°
2026-04-23 17:44 -34.57310 -66.66235 37099 ft 525 kts 95°
2026-04-23 17:44 -34.58725 -66.53038 37098 ft 526 kts 95°
2026-04-23 17:45 -34.60130 -66.39820 37097 ft 526 kts 94°
2026-04-23 17:46 -34.61509 -66.26588 37095 ft 526 kts 94°
2026-04-23 17:46 -34.62421 -66.17807 37089 ft 527 kts 94°
2026-04-23 17:47 -34.63334 -66.08978 37089 ft 527 kts 94°
2026-04-23 17:48 -34.64696 -65.95704 37092 ft 528 kts 94°
2026-04-23 17:48 -34.65598 -65.86834 37090 ft 528 kts 94°
2026-04-23 17:49 -34.66490 -65.77975 37088 ft 528 kts 94°
2026-04-23 17:49 -34.67365 -65.69118 37094 ft 528 kts 94°
2026-04-23 17:50 -34.68244 -65.60226 37090 ft 529 kts 94°
2026-04-23 17:50 -34.69556 -65.46900 37089 ft 529 kts 94°
2026-04-23 17:51 -34.70413 -65.38068 37090 ft 529 kts 94°
2026-04-23 17:52 -34.71688 -65.24721 37091 ft 530 kts 94°
2026-04-23 17:52 -34.72969 -65.11370 37095 ft 530 kts 94°
2026-04-23 17:53 -34.74226 -64.97993 37095 ft 531 kts 93°
2026-04-23 17:54 -34.75043 -64.89058 37094 ft 531 kts 93°
2026-04-23 17:54 -34.76282 -64.75641 37095 ft 532 kts 93°
2026-04-23 17:55 -34.77492 -64.62263 37102 ft 532 kts 93°
2026-04-23 17:56 -34.78301 -64.53313 37100 ft 532 kts 93°
2026-04-23 17:56 -34.79534 -64.39810 37096 ft 533 kts 93°
2026-04-23 17:57 -34.80346 -64.30851 37101 ft 533 kts 93°
2026-04-23 17:58 -34.81411 -64.18879 37102 ft 533 kts 93°
2026-04-23 17:58 -34.82191 -64.09900 37105 ft 534 kts 93°
2026-04-23 17:59 -34.82963 -64.00910 37107 ft 534 kts 93°
2026-04-23 17:59 -34.83736 -63.91926 37099 ft 534 kts 93°
2026-04-23 18:00 -34.84512 -63.82894 37110 ft 535 kts 93°
2026-04-23 18:00 -34.85276 -63.73884 37109 ft 535 kts 92°
2026-04-23 18:01 -34.86035 -63.64862 37119 ft 535 kts 92°
2026-04-23 18:01 -34.86783 -63.55898 37122 ft 536 kts 92°
2026-04-23 18:02 -34.87536 -63.46866 37118 ft 536 kts 92°
2026-04-23 18:02 -34.88287 -63.37768 37117 ft 536 kts 92°
2026-04-23 18:03 -34.89018 -63.28709 37123 ft 537 kts 92°
2026-04-23 18:03 -34.89750 -63.19659 37127 ft 537 kts 92°
2026-04-23 18:04 -34.90482 -63.10599 37117 ft 537 kts 92°
2026-04-23 18:04 -34.91202 -63.01548 37121 ft 537 kts 92°
2026-04-23 18:05 -34.91909 -62.92471 37124 ft 537 kts 92°
2026-04-23 18:05 -34.92608 -62.83444 37122 ft 537 kts 92°
2026-04-23 18:06 -34.93304 -62.74380 37125 ft 538 kts 92°
2026-04-23 18:06 -34.94003 -62.65286 37131 ft 538 kts 92°
2026-04-23 18:07 -34.94694 -62.56197 37134 ft 538 kts 92°
2026-04-23 18:07 -34.95368 -62.47111 37134 ft 538 kts 92°
2026-04-23 18:08 -34.95933 -62.39419 37132 ft 538 kts 92°
2026-04-23 18:08 -34.96683 -62.28775 37137 ft 538 kts 91°
2026-04-23 18:09 -34.97078 -62.19668 37138 ft 537 kts 88°
2026-04-23 18:09 -34.97282 -62.10635 37135 ft 537 kts 88°
2026-04-23 18:10 -34.97505 -62.01526 37139 ft 537 kts 88°
2026-04-23 18:10 -34.97800 -61.92413 37141 ft 537 kts 89°
2026-04-23 18:11 -34.98105 -61.83297 37144 ft 538 kts 89°
2026-04-23 18:11 -34.98387 -61.74184 37144 ft 538 kts 88°
2026-04-23 18:12 -34.98652 -61.65064 37141 ft 538 kts 88°
2026-04-23 18:12 -34.98908 -61.55942 37146 ft 538 kts 88°
2026-04-23 18:13 -34.99147 -61.46795 37151 ft 538 kts 88°
2026-04-23 18:13 -34.99378 -61.37674 37152 ft 538 kts 88°
2026-04-23 18:14 -34.99610 -61.28542 37152 ft 539 kts 88°
2026-04-23 18:14 -34.99831 -61.19400 37154 ft 539 kts 88°
2026-04-23 18:15 -35.00046 -61.10260 37152 ft 539 kts 88°
2026-04-23 18:15 -35.00253 -61.01126 37155 ft 539 kts 88°
2026-04-23 18:16 -35.00445 -60.91974 37155 ft 539 kts 88°
2026-04-23 18:16 -35.00642 -60.82868 37159 ft 540 kts 88°
2026-04-23 18:17 -35.00933 -60.69139 37157 ft 540 kts 87°
2026-04-23 18:17 -35.01112 -60.59949 37158 ft 540 kts 87°
2026-04-23 18:18 -35.01281 -60.50791 37158 ft 540 kts 87°
2026-04-23 18:18 -35.01451 -60.41566 37156 ft 541 kts 87°
2026-04-23 18:19 -35.01614 -60.32390 37154 ft 541 kts 87°
2026-04-23 18:19 -35.01758 -60.23263 37158 ft 541 kts 87°
2026-04-23 18:20 -35.01900 -60.14072 37154 ft 541 kts 87°
2026-04-23 18:20 -35.02041 -60.04829 37156 ft 542 kts 87°
2026-04-23 18:21 -35.02175 -59.95631 37155 ft 542 kts 87°
2026-04-23 18:21 -35.02299 -59.86428 37157 ft 542 kts 87°
2026-04-23 18:22 -35.02410 -59.77228 37153 ft 543 kts 86°
2026-04-23 18:22 -35.02514 -59.68053 37150 ft 543 kts 86°
2026-04-23 18:23 -35.01128 -59.54491 37142 ft 531 kts 71°
2026-04-23 18:24 -34.98710 -59.41212 37139 ft 533 kts 71°
2026-04-23 18:25 -34.96309 -59.28026 36914 ft 535 kts 71°
2026-04-23 18:25 -34.95498 -59.23604 36532 ft 533 kts 71°
2026-04-23 18:25 -34.94689 -59.19193 36164 ft 532 kts 71°
2026-04-23 18:25 -34.93882 -59.14793 35786 ft 531 kts 71°
2026-04-23 18:26 -34.93075 -59.10401 35420 ft 530 kts 71°
2026-04-23 18:26 -34.92266 -59.06026 35063 ft 528 kts 71°
2026-04-23 18:26 -34.91727 -59.03133 34838 ft 528 kts 71°
2026-04-23 18:26 -34.90918 -58.98793 34493 ft 526 kts 71°
2026-04-23 18:27 -34.90106 -58.94433 34136 ft 525 kts 71°
2026-04-23 18:27 -34.89297 -58.90106 33729 ft 524 kts 71°
2026-04-23 18:27 -34.88474 -58.85712 33325 ft 525 kts 71°
2026-04-23 18:27 -34.87659 -58.81375 32932 ft 525 kts 71°
2026-04-23 18:28 -34.86844 -58.77039 32540 ft 526 kts 71°
2026-04-23 18:28 -34.86022 -58.72680 32161 ft 526 kts 71°
2026-04-23 18:28 -34.85205 -58.68342 31753 ft 523 kts 71°
2026-04-23 18:28 -34.84380 -58.63943 31367 ft 515 kts 71°
2026-04-23 18:29 -34.83587 -58.59716 30996 ft 510 kts 70°
2026-04-23 18:29 -34.82807 -58.55574 30639 ft 507 kts 70°
2026-04-23 18:29 -34.82188 -58.51340 30286 ft 509 kts 77°
2026-04-23 18:29 -34.81751 -58.47082 29879 ft 506 kts 77°
2026-04-23 18:30 -34.81314 -58.42830 29454 ft 503 kts 77°
2026-04-23 18:30 -34.80878 -58.38563 29043 ft 500 kts 78°
2026-04-23 18:30 -34.80458 -58.34430 28645 ft 497 kts 78°
2026-04-23 18:30 -34.80033 -58.30267 28241 ft 494 kts 78°
2026-04-23 18:31 -34.79605 -58.26134 27847 ft 491 kts 78°
2026-04-23 18:31 -34.79172 -58.22025 27466 ft 488 kts 78°
2026-04-23 18:31 -34.78740 -58.17934 27095 ft 485 kts 78°
2026-04-23 18:31 -34.78312 -58.13867 26723 ft 482 kts 79°
2026-04-23 18:32 -34.77885 -58.09828 26358 ft 480 kts 79°
2026-04-23 18:32 -34.77460 -58.05810 25993 ft 477 kts 79°
2026-04-23 18:32 -34.77037 -58.01829 25633 ft 474 kts 79°
2026-04-23 18:32 -34.76613 -57.97854 25279 ft 472 kts 80°
2026-04-23 18:33 -34.76193 -57.93910 24927 ft 469 kts 80°
2026-04-23 18:33 -34.75772 -57.89970 24584 ft 466 kts 80°
2026-04-23 18:33 -34.75353 -57.86064 24239 ft 464 kts 80°
2026-04-23 18:33 -34.74936 -57.82191 23901 ft 461 kts 81°
2026-04-23 18:34 -34.74519 -57.78335 23523 ft 459 kts 81°
2026-04-23 18:34 -34.74104 -57.74498 23102 ft 455 kts 81°
2026-04-23 18:34 -34.73692 -57.70701 22707 ft 450 kts 81°
2026-04-23 18:34 -34.73281 -57.66938 22282 ft 446 kts 81°
2026-04-23 18:35 -34.72873 -57.63222 21872 ft 441 kts 81°
2026-04-23 18:35 -34.72470 -57.59551 21465 ft 437 kts 81°
2026-04-23 18:35 -34.72069 -57.55912 21067 ft 433 kts 81°
2026-04-23 18:35 -34.71761 -57.52294 20671 ft 429 kts 88°
2026-04-23 18:36 -34.71864 -57.48687 20282 ft 424 kts 97°
2026-04-23 18:36 -34.72174 -57.45134 19898 ft 420 kts 97°
2026-04-23 18:36 -34.72469 -57.41669 19523 ft 416 kts 97°
2026-04-23 18:36 -34.72761 -57.38191 19150 ft 411 kts 96°
2026-04-23 18:37 -34.73048 -57.34740 18782 ft 407 kts 97°
2026-04-23 18:37 -34.73329 -57.31336 18410 ft 403 kts 96°
2026-04-23 18:37 -34.73607 -57.27955 17981 ft 399 kts 97°
2026-04-23 18:37 -34.73883 -57.24605 17564 ft 396 kts 97°
2026-04-23 18:38 -34.74155 -57.21291 17148 ft 393 kts 97°
2026-04-23 18:38 -34.74427 -57.17996 16742 ft 389 kts 97°
2026-04-23 18:38 -34.74694 -57.14743 16342 ft 386 kts 97°
2026-04-23 18:38 -34.74961 -57.11494 15946 ft 383 kts 97°
2026-04-23 18:39 -34.75223 -57.08277 15556 ft 380 kts 97°
2026-04-23 18:39 -34.75481 -57.05082 15167 ft 377 kts 97°
2026-04-23 18:39 -34.75737 -57.01915 14776 ft 374 kts 97°
2026-04-23 18:39 -34.75987 -56.98778 14409 ft 371 kts 97°
2026-04-23 18:40 -34.76236 -56.95653 14026 ft 369 kts 97°
2026-04-23 18:40 -34.76482 -56.92568 13626 ft 366 kts 97°
2026-04-23 18:40 -34.76727 -56.89491 13210 ft 363 kts 97°
2026-04-23 18:40 -34.76964 -56.86484 12806 ft 360 kts 97°
2026-04-23 18:41 -34.77203 -56.83457 12400 ft 358 kts 96°
2026-04-23 18:41 -34.77439 -56.80454 11977 ft 356 kts 96°
2026-04-23 18:41 -34.77672 -56.77460 11559 ft 353 kts 96°
2026-04-23 18:41 -34.77904 -56.74494 11142 ft 350 kts 96°
2026-04-23 18:42 -34.77974 -56.71554 10740 ft 348 kts 86°
2026-04-23 18:42 -34.77610 -56.68647 10370 ft 345 kts 77°
2026-04-23 18:42 -34.77075 -56.65813 10065 ft 343 kts 77°
2026-04-23 18:42 -34.76548 -56.62990 9733 ft 341 kts 77°
2026-04-23 18:43 -34.76023 -56.60171 9392 ft 340 kts 77°
2026-04-23 18:43 -34.75503 -56.57377 9061 ft 338 kts 77°
2026-04-23 18:43 -34.74988 -56.54599 8733 ft 336 kts 77°
2026-04-23 18:43 -34.74475 -56.51833 8409 ft 334 kts 76°
2026-04-23 18:44 -34.73965 -56.49084 8081 ft 333 kts 76°
2026-04-23 18:44 -34.73456 -56.46350 7753 ft 331 kts 76°
2026-04-23 18:44 -34.72948 -56.43634 7442 ft 329 kts 76°
2026-04-23 18:44 -34.72438 -56.40919 7135 ft 327 kts 76°
2026-04-23 18:45 -34.71934 -56.38249 6812 ft 321 kts 76°
2026-04-23 18:45 -34.71440 -56.35630 6491 ft 315 kts 76°
2026-04-23 18:45 -34.70958 -56.33058 6176 ft 310 kts 76°
2026-04-23 18:45 -34.70479 -56.30519 5846 ft 306 kts 76°
2026-04-23 18:46 -34.70006 -56.28016 5517 ft 301 kts 76°
2026-04-23 18:46 -34.69538 -56.25545 5189 ft 297 kts 76°
2026-04-23 18:46 -34.69077 -56.23113 4874 ft 293 kts 77°
2026-04-23 18:46 -34.68625 -56.20727 4582 ft 287 kts 77°
2026-04-23 18:47 -34.68182 -56.18398 4300 ft 280 kts 77°
2026-04-23 18:47 -34.67753 -56.16135 4176 ft 269 kts 77°
2026-04-23 18:47 -34.67342 -56.13979 4185 ft 258 kts 77°
2026-04-23 18:47 -34.66941 -56.11869 4191 ft 255 kts 77°
2026-04-23 18:48 -34.66547 -56.09794 4189 ft 255 kts 77°
2026-04-23 18:48 -34.66145 -56.07689 4188 ft 255 kts 77°
2026-04-23 18:48 -34.65746 -56.05592 4192 ft 254 kts 78°
2026-04-23 18:48 -34.65508 -56.03463 4191 ft 254 kts 87°
2026-04-23 18:49 -34.65519 -56.01379 4182 ft 238 kts 94°
2026-04-23 18:49 -34.65679 -55.99437 4030 ft 226 kts 99°
2026-04-23 18:49 -34.65974 -55.97569 3809 ft 220 kts 104°
2026-04-23 18:49 -34.66385 -55.95815 3586 ft 217 kts 109°
2026-04-23 18:50 -34.66728 -55.94658 3434 ft 215 kts 112°
2026-04-23 18:50 -34.67535 -55.92499 3225 ft 210 kts 118°
2026-04-23 18:50 -34.68248 -55.90994 3181 ft 200 kts 123°
2026-04-23 18:50 -34.69020 -55.89622 3188 ft 195 kts 128°
2026-04-23 18:51 -34.69946 -55.88428 3085 ft 192 kts 145°
2026-04-23 18:51 -34.71119 -55.87686 3047 ft 190 kts 164°
2026-04-23 18:51 -34.72416 -55.87451 2979 ft 188 kts 183°
2026-04-23 18:51 -34.73692 -55.87739 2880 ft 186 kts 201°
2026-04-23 18:52 -34.74795 -55.88500 2694 ft 176 kts 220°
2026-04-23 18:52 -34.75587 -55.89575 2492 ft 160 kts 234°
2026-04-23 18:52 -34.76232 -55.90626 2278 ft 152 kts 234°
2026-04-23 18:52 -34.76855 -55.91641 2076 ft 148 kts 234°
2026-04-23 18:53 -34.77466 -55.92640 1874 ft 146 kts 234°
2026-04-23 18:53 -34.78072 -55.93631 1692 ft 145 kts 234°
2026-04-23 18:53 -34.78673 -55.94614 1484 ft 145 kts 234°
2026-04-23 18:53 -34.79274 -55.95597 1304 ft 145 kts 234°
2026-04-23 18:54 -34.79874 -55.96579 1110 ft 144 kts 234°
2026-04-23 18:54 -34.80267 -55.97224 978 ft 144 kts 233°
2026-04-23 18:54 -34.80864 -55.98203 786 ft 143 kts 232°
2026-04-23 18:54 -34.81453 -55.99170 589 ft 142 kts 231°
2026-04-23 18:55 -34.82040 -56.00137 400 ft 141 kts 231°
2026-04-23 18:55 -34.82623 -56.01091 198 ft 140 kts 231°
2026-04-23 18:55 -34.83181 -56.01996 93 ft 115 kts 234°
2026-04-23 18:55 -34.83551 -56.02605 85 ft 65 kts 234°
2026-04-23 18:56 -34.83736 -56.02913 66 ft 35 kts 233°
2026-04-23 18:56 -34.83850 -56.03075 69 ft 19 kts 197°
2026-04-23 18:56 -34.83983 -56.03063 67 ft 20 kts 148°
2026-04-23 18:56 -34.84012 -56.02926 67 ft 16 kts 97°
2026-04-23 18:57 -34.84010 -56.02795 66 ft 15 kts 77°
2026-04-23 18:57 -34.83964 -56.02699 69 ft 12 kts 61°
2026-04-23 18:57 -34.83946 -56.02595 75 ft 18 kts 91°
2026-04-23 18:57 -34.83949 -56.02418 78 ft 22 kts 90°
2026-04-23 18:58 -34.83915 -56.02266 78 ft 15 kts 25°
2026-04-23 18:58 -34.83828 -56.02234 84 ft 12 kts
2026-04-23 18:58 -34.83775 -56.02218 88 ft 0 kts 37°
2026-04-23 18:59 -34.83768 -56.02211 88 ft 8 kts 40°
2026-04-23 18:59 -34.83696 -56.02095 88 ft 19 kts 54°
2026-04-23 18:59 -34.83615 -56.01964 89 ft 18 kts 53°
2026-04-23 18:59 -34.83541 -56.01844 91 ft 15 kts 53°
2026-04-23 19:00 -34.83527 -56.01772 92 ft 7 kts 121°
2026-04-23 19:00 -34.83560 -56.01742 92 ft 6 kts 141°
2026-04-23 19:00 -34.83587 -56.01717 94 ft 3 kts 143°
2026-04-23 19:00 -34.83589 -56.01716 94 ft 0 kts 143°